Augusta, ME

6:19 PM EST on December 16, 2017 (GMT -0500)
Augusta State

Weather History for KAUG - September, 2013

Change the Weather History Date:

Monday, September 23, 2013

  Actual Average Record
Temperature  
Mean Temperature 50 °F 57 °F  
Max Temperature 55 °F 67 °F 85 °F (1965)
Min Temperature 45 °F 48 °F 35 °F (1955)
Degree Days  
Heating Degree Days 15 8  
Month to date heating degree days 110  
Since 1 July heating degree days 152  
Cooling Degree Days 0 0  
Month to date cooling degree days 27  
Year to date cooling degree days 384  
Moisture  
Dew Point 39 °F    
Average Humidity 67    
Maximum Humidity 80    
Minimum Humidity 55    
Precipitation  
Precipitation 0.00 in 0.14 in 1.30 in (1994)
Month to date precipitation 2.78  
Year to date precipitation 28.96  
Sea Level Pressure  
Sea Level Pressure 29.86 in    
Wind  
Wind Speed 8 mph (NW)    
Max Wind Speed 18 mph    
Max Gust Speed 29 mph    
Visibility 10 miles    
Events      
T = Trace of Precipitation, MM = Missing Value Source: NWS Daily Summary

Daily Weather History Graph

Daily Weather History Graph

Search for Another Location

Airport or City:

Trip Planner

Search our weather history database for the weather conditions in past years. The results will help you decide how hot, cold, wet, or windy it might be!

Date:

Astronomy

Sep. 23, 2013 Rise Set
Actual Time 6:27 AM EDT 6:34 PM EDT
Civil Twilight 5:58 AM EDT 7:03 PM EDT
Nautical Twilight 5:24 AM EDT 7:37 PM EDT
Astronomical Twilight 4:50 AM EDT 8:11 PM EDT
Moon 8:53 PM EDT (9/23) 10:54 AM EDT (9/23)
Length of Visible Light 13h 04m
Length of Day
12h 06m
Waning Gibbous, 81% of the Moon is Illuminated
Sep 23
Waning Gibbous
Sep 26
Last Quarter
Oct 4
New
Oct 11
First Quarter
Oct 18
Full

Hourly Weather History & Observations

Time (EDT) Temp. Windchill Dew Point Humidity Pressure Visibility Wind Dir Wind Speed Gust Speed Precip Events Conditions
12:53 AM 48.9 °F - 43.0 °F 80% 29.77 in 10.0 mi NW 5.8 mph - N/A   Clear
1:53 AM 48.0 °F - 42.1 °F 80% 29.77 in 10.0 mi NW 5.8 mph - N/A   Clear
2:53 AM 46.9 °F - 39.9 °F 77% 29.78 in 10.0 mi NW 6.9 mph - N/A   Clear
3:53 AM 46.9 °F - 39.0 °F 74% 29.78 in 10.0 mi WNW 5.8 mph - N/A   Clear
4:53 AM 46.9 °F - 37.0 °F 68% 29.79 in 10.0 mi WNW 11.5 mph 18.4 mph N/A   Clear
5:53 AM 45.0 °F 40.1 °F 36.0 °F 71% 29.81 in 10.0 mi NW 9.2 mph - N/A   Clear
6:53 AM 45.0 °F 40.6 °F 37.0 °F 74% 29.83 in 10.0 mi NW 8.1 mph - N/A   Clear
7:53 AM 46.9 °F - 37.9 °F 71% 29.84 in 10.0 mi NW 5.8 mph - N/A   Clear
8:53 AM 50.0 °F - 39.0 °F 66% 29.85 in 10.0 mi NW 11.5 mph - N/A   Partly Cloudy
9:53 AM 50.0 °F - 37.9 °F 63% 29.87 in 10.0 mi NW 12.7 mph 24.2 mph N/A   Scattered Clouds
10:53 AM 53.1 °F - 39.0 °F 59% 29.86 in 10.0 mi NW 13.8 mph 21.9 mph N/A   Mostly Cloudy
11:53 AM 53.1 °F - 39.0 °F 59% 29.87 in 10.0 mi NW 10.4 mph 20.7 mph N/A   Overcast
12:53 PM 53.1 °F - 39.0 °F 59% 29.88 in 10.0 mi NW 16.1 mph 24.2 mph N/A   Overcast
1:53 PM 55.0 °F - 39.0 °F 55% 29.88 in 10.0 mi NW 10.4 mph 23.0 mph N/A   Overcast
2:53 PM 54.0 °F - 37.9 °F 55% 29.88 in 10.0 mi NNW 18.4 mph 28.8 mph N/A   Overcast
3:53 PM 53.1 °F - 37.9 °F 57% 29.88 in 10.0 mi NW 15.0 mph 20.7 mph N/A   Mostly Cloudy
4:53 PM 52.0 °F - 37.9 °F 59% 29.89 in 10.0 mi NW 11.5 mph 19.6 mph N/A   Mostly Cloudy
5:53 PM 51.1 °F - 39.0 °F 63% 29.92 in 10.0 mi NW 9.2 mph - N/A   Overcast
6:53 PM 50.0 °F - 39.0 °F 66% 29.93 in 10.0 mi NW 8.1 mph - N/A   Overcast
7:53 PM 50.0 °F - 39.0 °F 66% 29.94 in 10.0 mi NW 5.8 mph - N/A   Overcast
8:53 PM 50.0 °F - 39.0 °F 66% 29.92 in 10.0 mi WNW 5.8 mph - N/A   Overcast
9:53 PM 48.9 °F - 37.9 °F 66% 29.92 in 10.0 mi WNW 8.1 mph - N/A   Scattered Clouds
10:53 PM 48.0 °F - 39.0 °F 71% 29.92 in 10.0 mi Variable 3.5 mph - N/A   Clear
11:53 PM 48.0 °F - 39.0 °F 71% 29.92 in 10.0 mi Calm Calm - N/A   Overcast